Time,TemperatureF,DewpointF,PressureIn,WindDirection,WindDirectionDegrees,WindSpeedMPH,WindSpeedGustMPH,Humidity,HourlyPrecipIn,Conditions,Clouds,dailyrainin,SolarRadiationWatts/m^2,SoftwareType,DateUTC
2013-03-11 00:13:00,38.2,34.0,29.93,WNW,300,7.0,-999.0,83,-99.99,,,0.00,0,weatherlink.com 1.10,2013-03-11 05:13:00,
2013-03-11 00:28:00,37.6,33.0,29.93,NW,309,14.0,-999.0,82,-99.99,,,0.00,0,weatherlink.com 1.10,2013-03-11 05:28:00,
2013-03-11 00:43:00,37.1,32.0,29.93,WNW,292,12.0,-999.0,83,-99.99,,,0.00,0,weatherlink.com 1.10,2013-03-11 05:43:00,
2013-03-11 00:58:00,36.9,32.0,29.93,NW,304,8.0,-999.0,83,-99.99,,,0.00,0,weatherlink.com 1.10,2013-03-11 05:58:00,
2013-03-11 01:13:00,36.5,32.0,29.92,WNW,298,7.0,-999.0,83,-99.99,,,0.00,0,weatherlink.com 1.10,2013-03-11 06:13:00,
2013-03-11 01:28:00,36.0,32.0,29.92,WNW,294,9.0,-999.0,84,-99.99,,,0.00,0,weatherlink.com 1.10,2013-03-11 06:28:00,
2013-03-11 01:43:00,35.5,31.0,29.93,WNW,302,6.0,-999.0,84,-99.99,,,0.00,0,weatherlink.com 1.10,2013-03-11 06:43:00,
2013-03-11 01:58:00,35.3,31.0,29.93,NW,313,13.0,-999.0,84,-99.99,,,0.00,0,weatherlink.com 1.10,2013-03-11 06:58:00,
2013-03-11 02:13:00,34.9,31.0,29.93,WNW,302,6.0,-999.0,84,-99.99,,,0.00,0,weatherlink.com 1.10,2013-03-11 07:13:00,
2013-03-11 02:28:00,34.6,30.0,29.93,WNW,294,8.0,-999.0,84,-99.99,,,0.00,0,weatherlink.com 1.10,2013-03-11 07:28:00,
2013-03-11 02:43:00,34.4,30.0,29.92,NW,315,10.0,-999.0,83,-99.99,,,0.00,0,weatherlink.com 1.10,2013-03-11 07:43:00,
2013-03-11 02:58:00,34.3,30.0,29.92,WNW,302,7.0,-999.0,85,-99.99,,,0.00,0,weatherlink.com 1.10,2013-03-11 07:58:00,
2013-03-11 03:13:00,34.1,30.0,29.93,West,269,8.0,-999.0,84,-99.99,,,0.00,0,weatherlink.com 1.10,2013-03-11 08:13:00,
2013-03-11 03:28:00,34.0,30.0,29.94,NW,315,12.0,-999.0,85,-99.99,,,0.00,0,weatherlink.com 1.10,2013-03-11 08:28:00,
2013-03-11 03:43:00,33.9,30.0,29.95,WNW,296,5.0,-999.0,86,-99.99,,,0.00,0,weatherlink.com 1.10,2013-03-11 08:43:00,
2013-03-11 03:58:00,33.6,30.0,29.95,WNW,290,7.0,-999.0,87,-99.99,,,0.00,0,weatherlink.com 1.10,2013-03-11 08:58:00,
2013-03-11 04:13:00,33.3,30.0,29.95,WNW,296,8.0,-999.0,89,-99.99,,,0.00,0,weatherlink.com 1.10,2013-03-11 09:13:00,
2013-03-11 04:28:00,32.9,30.0,29.95,West,261,7.0,-999.0,90,-99.99,,,0.00,0,weatherlink.com 1.10,2013-03-11 09:28:00,
2013-03-11 04:43:00,32.5,30.0,29.94,West,274,4.0,-999.0,91,-99.99,,,0.00,0,weatherlink.com 1.10,2013-03-11 09:43:00,
2013-03-11 04:58:00,32.1,30.0,29.94,WNW,288,5.0,-999.0,91,-99.99,,,0.00,0,weatherlink.com 1.10,2013-03-11 09:58:00,
2013-03-11 05:13:00,32.0,30.0,29.94,WNW,290,6.0,-999.0,91,-99.99,,,0.00,0,weatherlink.com 1.10,2013-03-11 10:13:00,
2013-03-11 05:28:00,32.1,30.0,29.95,WNW,284,7.0,-999.0,90,-99.99,,,0.00,0,weatherlink.com 1.10,2013-03-11 10:28:00,
2013-03-11 05:43:00,32.2,29.0,29.95,WNW,294,0.0,-999.0,89,-99.99,,,0.00,0,weatherlink.com 1.10,2013-03-11 10:43:00,
2013-03-11 05:58:00,32.2,29.0,29.95,WNW,295,7.0,-999.0,89,-99.99,,,0.00,0,weatherlink.com 1.10,2013-03-11 10:58:00,
2013-03-11 06:13:00,32.0,29.0,29.95,WNW,284,1.0,-999.0,88,-99.99,,,0.00,0,weatherlink.com 1.10,2013-03-11 11:13:00,
2013-03-11 06:28:00,31.7,29.0,29.95,WNW,283,4.0,-999.0,88,-99.99,,,0.00,0,weatherlink.com 1.10,2013-03-11 11:28:00,
2013-03-11 06:43:00,31.7,28.0,29.95,NW,311,14.0,-999.0,87,-99.99,,,0.00,0,weatherlink.com 1.10,2013-03-11 11:43:00,
2013-03-11 06:58:00,31.8,28.0,29.95,NW,323,5.0,-999.0,87,-99.99,,,0.00,0,weatherlink.com 1.10,2013-03-11 11:58:00,
2013-03-11 07:13:00,31.7,28.0,29.95,WNW,302,7.0,-999.0,87,-99.99,,,0.00,0,weatherlink.com 1.10,2013-03-11 12:13:00,
2013-03-11 07:28:00,31.6,28.0,29.95,NW,306,5.0,-999.0,86,-99.99,,,0.00,0,weatherlink.com 1.10,2013-03-11 12:28:00,
2013-03-11 07:43:00,31.5,28.0,29.95,WNW,288,5.0,-999.0,86,-99.99,,,0.00,5,weatherlink.com 1.10,2013-03-11 12:43:00,
2013-03-11 07:58:00,31.5,28.0,29.96,WNW,299,5.0,-999.0,85,-99.99,,,0.00,12,weatherlink.com 1.10,2013-03-11 12:58:00,
2013-03-11 08:13:00,31.5,27.0,29.97,NW,317,5.0,-999.0,84,-99.99,,,0.00,25,weatherlink.com 1.10,2013-03-11 13:13:00,
2013-03-11 08:28:00,31.6,27.0,29.97,WNW,290,9.0,-999.0,84,-99.99,,,0.00,28,weatherlink.com 1.10,2013-03-11 13:28:00,
2013-03-11 08:43:00,31.6,27.0,29.98,WNW,294,6.0,-999.0,84,-99.99,,,0.00,49,weatherlink.com 1.10,2013-03-11 13:43:00,
2013-03-11 08:58:00,31.7,27.0,29.98,WNW,296,9.0,-999.0,84,-99.99,,,0.00,58,weatherlink.com 1.10,2013-03-11 13:58:00,
2013-03-11 09:14:00,31.9,28.0,30.00,West,269,8.0,-999.0,84,-99.99,,,0.00,67,weatherlink.com 1.10,2013-03-11 14:14:00,
2013-03-11 09:29:00,32.1,28.0,30.00,WNW,296,8.0,-999.0,83,-99.99,,,0.00,79,weatherlink.com 1.10,2013-03-11 14:29:00,
2013-03-11 09:44:00,32.3,27.0,30.00,WNW,291,12.0,-999.0,82,-99.99,,,0.00,113,weatherlink.com 1.10,2013-03-11 14:44:00,
2013-03-11 09:59:00,32.8,28.0,30.00,NW,317,11.0,-999.0,82,-99.99,,,0.00,172,weatherlink.com 1.10,2013-03-11 14:59:00,
2013-03-11 10:14:00,33.7,28.0,30.00,WNW,291,9.0,-999.0,80,-99.99,,,0.00,237,weatherlink.com 1.10,2013-03-11 15:14:00,
2013-03-11 10:29:00,33.7,28.0,30.01,WNW,296,8.0,-999.0,79,-99.99,,,0.00,366,weatherlink.com 1.10,2013-03-11 15:29:00,
2013-03-11 10:44:00,34.8,29.0,30.01,WNW,295,9.0,-999.0,78,-99.99,,,0.00,411,weatherlink.com 1.10,2013-03-11 15:44:00,
2013-03-11 10:59:00,34.8,28.0,30.01,West,280,9.0,-999.0,77,-99.99,,,0.00,241,weatherlink.com 1.10,2013-03-11 15:59:00,
2013-03-11 11:14:00,35.0,28.0,30.02,WNW,298,15.0,-999.0,76,-99.99,,,0.00,185,weatherlink.com 1.10,2013-03-11 16:14:00,
2013-03-11 11:29:00,34.9,28.0,30.02,WNW,294,13.0,-999.0,76,-99.99,,,0.00,225,weatherlink.com 1.10,2013-03-11 16:29:00,
2013-03-11 11:44:00,35.3,28.0,30.02,NW,311,8.0,-999.0,74,-99.99,,,0.00,186,weatherlink.com 1.10,2013-03-11 16:44:00,
2013-03-11 11:59:00,35.5,28.0,30.02,NW,316,11.0,-999.0,75,-99.99,,,0.00,181,weatherlink.com 1.10,2013-03-11 16:59:00,
2013-03-11 12:14:00,35.8,28.0,30.02,WNW,282,8.0,-999.0,74,-99.99,,,0.00,186,weatherlink.com 1.10,2013-03-11 17:14:00,
2013-03-11 12:29:00,35.7,28.0,30.02,WNW,298,1.0,-999.0,74,-99.99,,,0.00,221,weatherlink.com 1.10,2013-03-11 17:29:00,
2013-03-11 12:44:00,36.0,28.0,30.01,NW,309,16.0,-999.0,72,-99.99,,,0.00,234,weatherlink.com 1.10,2013-03-11 17:44:00,
2013-03-11 12:59:00,36.5,28.0,30.02,NW,312,7.0,-999.0,72,-99.99,,,0.00,306,weatherlink.com 1.10,2013-03-11 17:59:00,
2013-03-11 13:14:00,36.8,29.0,30.02,WNW,297,9.0,-999.0,72,-99.99,,,0.00,283,weatherlink.com 1.10,2013-03-11 18:14:00,
2013-03-11 13:29:00,37.4,28.0,30.01,NW,305,4.0,-999.0,70,-99.99,,,0.00,353,weatherlink.com 1.10,2013-03-11 18:29:00,
2013-03-11 13:44:00,38.0,29.0,30.01,NW,311,13.0,-999.0,69,-99.99,,,0.00,308,weatherlink.com 1.10,2013-03-11 18:44:00,
2013-03-11 13:59:00,39.0,30.0,30.00,WNW,300,8.0,-999.0,69,-99.99,,,0.00,522,weatherlink.com 1.10,2013-03-11 18:59:00,
2013-03-11 14:14:00,39.0,30.0,30.01,NNW,340,15.0,-999.0,69,-99.99,,,0.00,373,weatherlink.com 1.10,2013-03-11 19:14:00,
2013-03-11 14:29:00,39.3,29.0,30.00,NW,304,6.0,-999.0,67,-99.99,,,0.00,265,weatherlink.com 1.10,2013-03-11 19:29:00,
2013-03-11 14:44:00,40.4,29.0,30.00,NW,311,6.0,-999.0,65,-99.99,,,0.00,336,weatherlink.com 1.10,2013-03-11 19:44:00,
2013-03-11 14:59:00,40.6,30.0,30.01,WNW,301,1.0,-999.0,65,-99.99,,,0.00,272,weatherlink.com 1.10,2013-03-11 19:59:00,
2013-03-11 15:14:00,40.9,29.0,30.00,WNW,302,9.0,-999.0,64,-99.99,,,0.00,309,weatherlink.com 1.10,2013-03-11 20:14:00,
2013-03-11 15:29:00,40.5,29.0,30.00,NW,315,7.0,-999.0,65,-99.99,,,0.00,276,weatherlink.com 1.10,2013-03-11 20:29:00,
2013-03-11 15:45:00,41.4,30.0,30.00,West,277,7.0,-999.0,65,-99.99,,,0.00,346,weatherlink.com 1.10,2013-03-11 20:45:00,
2013-03-11 16:00:00,41.9,30.0,30.00,NW,321,10.0,-999.0,64,-99.99,,,0.00,714,weatherlink.com 1.10,2013-03-11 21:00:00,
2013-03-11 16:15:00,43.6,31.0,30.01,WNW,282,0.0,-999.0,61,-99.99,,,0.00,582,weatherlink.com 1.10,2013-03-11 21:15:00,
2013-03-11 16:30:00,43.8,31.0,30.01,NW,315,9.0,-999.0,61,-99.99,,,0.00,592,weatherlink.com 1.10,2013-03-11 21:30:00,
2013-03-11 16:45:00,43.9,29.0,30.01,NW,306,6.0,-999.0,57,-99.99,,,0.00,480,weatherlink.com 1.10,2013-03-11 21:45:00,
2013-03-11 17:00:00,43.6,31.0,30.01,WNW,292,7.0,-999.0,61,-99.99,,,0.00,455,weatherlink.com 1.10,2013-03-11 22:00:00,
2013-03-11 17:15:00,43.1,28.0,30.01,NW,317,6.0,-999.0,55,-99.99,,,0.00,171,weatherlink.com 1.10,2013-03-11 22:15:00,
2013-03-11 17:30:00,43.3,29.0,30.01,WNW,300,7.0,-999.0,57,-99.99,,,0.00,311,weatherlink.com 1.10,2013-03-11 22:30:00,
2013-03-11 17:45:00,44.0,28.0,30.01,NW,313,9.0,-999.0,53,-99.99,,,0.00,251,weatherlink.com 1.10,2013-03-11 22:45:00,
2013-03-11 18:00:00,44.2,27.0,30.02,NW,309,0.0,-999.0,52,-99.99,,,0.00,179,weatherlink.com 1.10,2013-03-11 23:00:00,
2013-03-11 18:15:00,44.3,27.0,30.02,WNW,291,6.0,-999.0,51,-99.99,,,0.00,121,weatherlink.com 1.10,2013-03-11 23:15:00,
2013-03-11 18:30:00,44.0,28.0,30.02,WNW,300,5.0,-999.0,53,-99.99,,,0.00,28,weatherlink.com 1.10,2013-03-11 23:30:00,
2013-03-11 18:45:00,43.7,27.0,30.03,WNW,288,7.0,-999.0,52,-99.99,,,0.00,23,weatherlink.com 1.10,2013-03-11 23:45:00,
2013-03-11 19:00:00,43.4,27.0,30.03,WNW,295,2.0,-999.0,52,-99.99,,,0.00,14,weatherlink.com 1.10,2013-03-12 00:00:00,
2013-03-11 19:15:00,43.0,26.0,30.03,WNW,302,0.0,-999.0,52,-99.99,,,0.00,0,weatherlink.com 1.10,2013-03-12 00:15:00,
2013-03-11 19:30:00,42.6,26.0,30.03,WNW,295,0.0,-999.0,52,-99.99,,,0.00,0,weatherlink.com 1.10,2013-03-12 00:30:00,
2013-03-11 19:45:00,42.3,26.0,30.03,WNW,295,2.0,-999.0,53,-99.99,,,0.00,0,weatherlink.com 1.10,2013-03-12 00:45:00,
2013-03-11 20:00:00,42.0,26.0,30.03,WNW,294,2.0,-999.0,53,-99.99,,,0.00,0,weatherlink.com 1.10,2013-03-12 01:00:00,
2013-03-11 20:15:00,41.8,26.0,30.04,WNW,294,4.0,-999.0,53,-99.99,,,0.00,0,weatherlink.com 1.10,2013-03-12 01:15:00,
2013-03-11 20:30:00,41.6,25.0,30.05,WNW,294,1.0,-999.0,53,-99.99,,,0.00,0,weatherlink.com 1.10,2013-03-12 01:30:00,
2013-03-11 20:45:00,41.4,25.0,30.05,WNW,294,5.0,-999.0,53,-99.99,,,0.00,0,weatherlink.com 1.10,2013-03-12 01:45:00,
2013-03-11 21:00:00,40.7,26.0,30.06,WNW,295,4.0,-999.0,56,-99.99,,,0.00,0,weatherlink.com 1.10,2013-03-12 02:00:00,
2013-03-11 21:15:00,40.0,26.0,30.07,WNW,295,5.0,-999.0,57,-99.99,,,0.00,0,weatherlink.com 1.10,2013-03-12 02:15:00,
2013-03-11 21:30:00,39.7,26.0,30.08,WNW,295,0.0,-999.0,58,-99.99,,,0.00,0,weatherlink.com 1.10,2013-03-12 02:30:00,
2013-03-11 21:45:00,39.0,26.0,30.08,WNW,295,1.0,-999.0,60,-99.99,,,0.00,0,weatherlink.com 1.10,2013-03-12 02:45:00,
2013-03-11 22:00:00,38.6,26.0,30.08,WNW,295,1.0,-999.0,60,-99.99,,,0.00,0,weatherlink.com 1.10,2013-03-12 03:00:00,
2013-03-11 22:15:00,38.4,25.0,30.09,WNW,295,0.0,-999.0,60,-99.99,,,0.00,0,weatherlink.com 1.10,2013-03-12 03:15:00,
2013-03-11 22:30:00,38.3,27.0,30.10,WNW,295,0.0,-999.0,63,-99.99,,,0.00,0,weatherlink.com 1.10,2013-03-12 03:30:00,
2013-03-11 22:45:00,38.2,26.0,30.11,WNW,295,0.0,-999.0,63,-99.99,,,0.00,0,weatherlink.com 1.10,2013-03-12 03:45:00,
2013-03-11 23:00:00,37.9,28.0,30.12,WNW,295,0.0,-999.0,68,-99.99,,,0.00,0,weatherlink.com 1.10,2013-03-12 04:00:00,
2013-03-11 23:15:00,37.4,28.0,30.12,WNW,295,0.0,-999.0,70,-99.99,,,0.00,0,weatherlink.com 1.10,2013-03-12 04:15:00,
2013-03-11 23:30:00,37.2,30.0,30.12,WNW,295,0.0,-999.0,74,-99.99,,,0.00,0,weatherlink.com 1.10,2013-03-12 04:30:00,
2013-03-11 23:45:00,36.8,30.0,30.13,WNW,295,0.0,-999.0,76,-99.99,,,0.00,0,weatherlink.com 1.10,2013-03-12 04:45:00,